Weather Roundup
Issued by NWS

Home | Current Version | Previous Version | Graphics & Text | Print | Product List | Glossary Off
Versions: 1 2 3 4 5 6 7 8 9 10 11 12 13 14 15 16 17 18 19 20 21 22 23 24 25 26 27 28 29 30 31 32 33 34 35 36 37 38 39 40 41 42 43 44 45 46 47 48 49 50

000
NZUS93 KARX 291959
HRRWXR

CURRENT HOURLY OBSERVATIONS ACROSS
MUCH OF THE UPPER MISSISSIPPI VALLEY
NATIONAL WEATHER SERVICE LA CROSSE WI
300 PM CDT WED JUL 29 2015


...SOUTHEAST MINNESOTA...


CITY           SKY/WX    TMP DP  RH WIND       PRES   REMARKS
ROCHESTER      SUNNY     78  55  44 W29G37    30.01F
ROCHESTER/MAYO FAIR      79  49  35 W30G45    29.98F
WINONA         SUNNY     81  50  34 W15G26    29.97S
AUSTIN         SUNNY     81  50  34 W21G28    30.03F
ALBERT LEA     SUNNY     81  52  36 W18G26    30.04S
DODGE CENTER   SUNNY     79  52  38 W25G33    30.02S
PRESTON        SUNNY     79  51  37 W25G39    30.03F
OWATONNA       SUNNY     79  55  44 W21G31    30.01F
FARIBAULT      SUNNY     79  54  41 W21G32    30.00S
$$

...ELSEWHERE IN MINNESOTA...


CITY           SKY/WX    TMP DP  RH WIND       PRES   REMARKS
MINNEAPOLIS    MOSUNNY   82  54  37 W23G39    29.94F
INTNL FALLS    LGT RAIN  65  58  78 W15G23    29.68R
DULUTH         PTSUNNY   73  56  54 W15G24    29.79S
RED WING       SUNNY     84  52  32 W17G29    29.94S
REDWOOD FALLS  MOSUNNY   82  51  34 W26G35    30.01S
MANKATO        MOSUNNY   81  54  39 W21G31    30.01S
WORTHINGTON    SUNNY     79  54  41 W21G26    30.10S
FAIRMONT       SUNNY     81  52  36 W22       30.06S
$$

...SOUTHWEST WISCONSIN...


CITY           SKY/WX    TMP DP  RH WIND       PRES   REMARKS
LA CROSSE      SUNNY     84  52  33 W24G35    29.96S
PRAIRIE DU CHI SUNNY     84  46  27 W21G28    30.01F
BOSCOBEL       SUNNY     87  55  33 NW10      30.00F
LONE ROCK      NOT AVBL
PLATTEVILLE    MOSUNNY   81  55  41 W18G28    30.04S
FORT MC COY    SUNNY     83  49  30 W16G26    29.96F
VIROQUA        FAIR      80  54  40 NW10G23   30.01S
WIS DELLS      SUNNY     84  45  25 W17G26    29.97S
$$

...ELSEWHERE IN WISCONSIN...


CITY           SKY/WX    TMP DP  RH WIND       PRES   REMARKS
MILWAUKEE      MOSUNNY   86  50  28 W15       29.94F
MADISON        MOSUNNY   83  50  31 W14G22    29.97F
GREEN BAY      SUNNY     84  52  33 W22G29    29.86F
EAU CLAIRE     NOT AVBL
BLACK RVR FLS  FAIR      83  48  29 W17G32    29.94S
MEDFORD        MOSUNNY   77  55  45 W23G32    29.90S
WAUSAU         SUNNY     82  50  32 W25G38    29.87S
WIS RAPIDS     SUNNY     84  46  26 W20G37    29.92F
MARSHFIELD     SUNNY     81  49  32 W24G37    29.91S
RICE LAKE      MOSUNNY   77  56  48 SW17G25   29.91S
$$

...NORTHEAST IOWA...


CITY           SKY/WX    TMP DP  RH WIND       PRES   REMARKS
DECORAH        SUNNY     79  54  41 W14G24    30.03F
MASON CITY     SUNNY     83  55  38 W25G31    30.07F
CHARLES CITY   SUNNY     81  55  41 NW21      30.06F
OELWEIN        SUNNY     81  55  41 W16G24    30.07F
$$

...ELSEWHERE IN IOWA...


CITY           SKY/WX    TMP DP  RH WIND       PRES   REMARKS
DES MOINES     MOSUNNY   85  53  33 NW12G22   30.12R
IOWA CITY      SUNNY     84  56  38 NW14      30.09S
FORT DODGE     SUNNY     81  55  41 W14G22    30.12S
$$

...NORTHERN ILLINOIS...


CITY           SKY/WX    TMP DP  RH WIND       PRES   REMARKS
CHICAGO-OHARE  MOSUNNY   87  49  26 NW16      29.98S
CHICAGO-MIDWAY MOSUNNY   90  52  27 W6G21     29.97F
MOLINE         MOSUNNY   86  56  35 NW9       30.06S
ROCKFORD       MOSUNNY   86  54  33 W14       30.03F
PEORIA         MOSUNNY   86  58  38 NW6       30.05F
$$

NOTE: "FAIR" INDICATES FEW OR NO CLOUDS BELOW 12,000 FEET WITH NO
SIGNIFICANT WEATHER AND/OR OBSTRUCTIONS TO VISIBILITY. WIND
SPEEDS ARE IN MILES-PER-HOUR.



USA.gov is the U.S. government's official web portal to all federal, state and local government web resources and services.